User: anonymous   Login
Location: Unspecified
(0.0000°N, 0.0000°E)
Time: 00:05:06
(UTC+00:00)
Language:

METEOR M2 - Orbit

View from above orbital plane
View from above orbital plane
View from above satellite
View from above satellite

Ground track
Ground track

The orbit data is extracted from the following two-line orbital elements,

1 40069U 14037A   17172.81111058 -.00000035 +00000-0 +39136-5 0  9993
2 40069 098.6539 227.4410 0005121 190.5508 169.5555 14.20642888153219
Epoch (UTC): 21 June 2017 19:27:59
Eccentricity: 0.0005121
inclination: 98.6539°
perigee height: 819 km
apogee height: 827 km
right ascension of ascending node: 227.4410°
argument of perigee: 190.5508°
revolutions per day: 14.20642888
mean anomaly at epoch: 169.5555°
orbit number at epoch: 15321

The dashed part of the orbit path shows where the satellite is in the earth's shadow,  

DLR